Location: Kenley
(51.3167°N, 0.1000°W)
Time: 16:15:03
(UTC+00:00)

Daily predictions for brighter satellites

Satellite Brightness Start Highest point End
(mag) Time Altitude Azimuth Time Altitude Azimuth Time Altitude Azimuth
Centaur D AC-29 4.3 20:39:07 10° S 20:43:29 14° SE 20:51:55 10° ESE
ARGOS Delta rocket 3.9 20:40:21 10° SSE 20:45:10 70° ENE 20:49:46 10° N
Cosmos 1151 Rocket 3.9 20:44:37 10° SSE 20:48:30 33° E 20:52:22 10° NNE
Cosmos 1975 4.0 20:46:31 10° N 20:49:58 28° ENE 20:53:24 10° SE
Cosmos 1992 Rocket 4.3 20:47:57 10° NNW 20:53:07 56° ENE 20:58:14 10° SE
Cosmos 1302 Rocket 4.1 20:52:24 10° NNW 20:57:37 77° WSW 21:02:49 10° SSE
MOS 1 Rocket 3.9 20:54:43 10° SSE 20:59:53 60° ENE 21:05:13 10° N
USA 281 3.7 20:54:51 10° SE 21:01:11 52° NE 21:07:33 10° NNW
NOSS 3-3 (A) 4.4 20:58:21 10° S 21:03:12 33° ESE 21:08:41 10° NE
Cosmos 1536 3.6 21:01:05 10° NNW 21:04:52 49° W 21:08:40 10° S
Meteor 1-19 Rocket 4.3 21:00:51 10° S 21:06:39 73° E 21:12:17 10° NNE
NOSS 2-1 (C) 4.0 21:03:27 10° NW 21:07:10 55° SW 21:12:13 10° SSE
Meteor 2-17 Rocket 4.5 21:02:50 10° S 21:08:47 64° E 21:14:47 10° NNE
Cosmos 1340 2.4 21:05:23 10° NNW 21:08:48 80° W 21:12:10 10° S
Cosmos 1943 4.2 21:04:02 10° SW 21:09:33 51° NW 21:15:05 10° NNE
Landsat 4 3.5 21:09:48 10° SSE 21:13:17 83° WSW 21:16:47 10° NNW
Meteor 2-10 4.4 21:09:36 10° NNW 21:15:02 67° W 21:20:15 10° S
Cosmos 1500 Rocket 4.1 21:12:09 10° NNW 21:16:22 56° W 21:20:34 10° S
Okean-O 4.4 21:12:33 10° SSW 21:16:22 29° W 21:20:14 10° NW
USA 245 2.9 21:14:32 10° S 21:16:49 48° W 21:19:28 10° NNW
NOSS 3-4 (A) 4.4 21:11:13 10° NW 21:17:36 53° NE 21:24:59 10° ESE
Nadezhda 4 Rocket 4.0 21:11:29 10° S 21:17:40 75° E 21:23:57 10° NNE
NOSS 3-4 (C) 4.4 21:11:19 10° NW 21:17:42 53° NE 21:25:04 10° ESE
Spot 2 Rocket 3.6 21:12:56 10° SSE 21:17:59 84° WSW 21:23:05 10° NNW
MetOp-A 4.3 21:14:04 11° SE 21:18:34 52° ENE 21:23:31 10° N
Cosmos 1626 3.1 21:17:57 13° SE 21:20:07 24° E 21:22:47 10° NE
Cosmos 1726 4.4 21:20:43 10° NW 21:22:48 17° W 21:24:51 10° SW
SPOT 5 3.9 21:19:06 10° SSW 21:23:11 36° W 21:27:12 10° NNW
Sich 1 3.6 21:19:39 10° NNW 21:23:57 56° W 21:28:14 10° S
Cosmos 1697 Rocket 3.3 21:20:28 10° NNW 21:25:56 47° NE 21:31:08 11° SE
BREEZE-M DEB (TANK) 3.7 21:16:14 10° SW 21:27:00 41° SSE 21:30:22 10° E
Cosmos 1805 Rocket 4.3 21:23:44 10° NNW 21:28:01 52° W 21:32:18 10° S
Cosmos 1733 4.0 21:26:26 10° NNW 21:29:46 43° W 21:33:05 10° SSW
Cosmos 1633 Rocket 3.4 21:26:56 10° N 21:31:17 54° ENE 21:34:53 14° SSE
Cosmos 1980 Rocket 3.5 21:30:45 10° NNW 21:35:54 33° NE 21:41:01 10° ESE
NOSS 3-3 (C) 4.0 21:31:24 10° SSW 21:36:38 51° ESE 21:42:49 10° NE
Cosmos 1666 Rocket 3.5 21:32:56 10° N 21:37:16 73° ENE 21:40:50 15° SSE
Lacrosse 5 rocket 2.4 21:34:40 10° WNW 21:38:48 46° NNE 21:42:47 10° E
SL-8 R/B 3.8 21:34:20 10° W 21:38:59 56° S 21:43:39 10° ESE
Ariane Rocket 3.5 21:36:22 10° S 21:41:21 57° W 21:46:23 10° NNW
IRIDIUM 114 4.4 21:36:08 10° N 21:41:22 71° E 21:45:55 14° SSE
Cosmos 44 Rocket 3.4 21:36:47 10° NW 21:41:46 75° NE 21:45:49 15° SE
Cosmos 1674 4.1 21:44:53 15° ESE 21:46:27 20° E 21:49:06 10° NE
USA 234 4.0 21:40:29 10° ENE 21:46:53 57° N 21:53:15 10° W
IRIDIUM 103 4.3 21:45:16 10° N 21:50:32 83° E 21:55:03 14° S
Meteor 2-4 Rocket 3.8 21:47:02 10° S 21:52:57 80° E 21:58:55 10° NNE
ERS-1 Rocket 4.3 21:49:16 10° SSW 21:53:49 34° W 21:58:24 10° NNW
Cosmos 1340 Rocket 4.1 21:50:28 10° SW 21:54:14 40° WNW 21:58:01 10° N
Lacrosse 4 Rocket 2.4 21:50:44 10° NW 21:54:31 36° WSW 21:57:32 15° S
Cosmos 2026 Rocket 4.0 21:49:47 10° S 21:56:03 77° E 22:02:15 10° NNE
SPOT 3 Rocket 4.3 21:51:18 10° S 21:56:14 48° W 22:01:14 10° NNW
Spot 1 3.9 21:52:36 10° NNE 21:56:45 85° ESE 22:01:02 10° SSW
Cosmos 614 Rocket 4.3 21:52:32 10° SSW 21:57:44 70° WNW 22:02:58 10° NNE
Cosmos 1818 3.5 21:54:47 10° SW 22:00:14 84° SE 22:05:47 10° NE
USA 59 Rocket 1.8 21:59:44 10° WNW 22:03:07 24° SW 22:06:48 12° S
Cosmos 1805 4.4 22:00:35 10° NNW 22:03:59 35° W 22:07:13 11° SSW
H-2A R/B 3.7 22:01:54 15° ESE 22:04:50 32° ENE 22:08:40 10° N
Cosmos 1607 4.4 21:59:03 10° S 22:05:06 44° ESE 22:11:13 10° NE
Cosmos 1766 3.1 22:03:27 10° N 22:07:14 81° E 22:09:34 22° SSE
Terra 3.4 22:03:52 10° SSW 22:07:54 28° W 22:11:58 10° NW
Cosmos 1833 Rocket 2.8 22:07:45 12° S 22:12:54 57° ESE 22:18:24 10° NE
Cosmos 1656 4.5 22:09:17 10° NW 22:14:23 40° WSW 22:18:33 15° S
ALOS 2 4.2 22:12:16 12° ESE 22:15:24 25° ENE 22:18:59 10° N
SL-16 R/B 4.2 22:11:05 10° NNW 22:15:27 22° NE 22:19:49 10° E
Cosmos 1269 Rocket 4.1 22:13:57 10° SSW 22:19:13 84° WNW 22:24:32 10° NNE
Cosmos 1470 2.9 22:18:03 10° N 22:21:43 56° ENE 22:23:37 25° SE
Landsat 5 3.9 22:19:48 10° N 22:23:30 52° WNW 22:27:15 10° SSW
S3M 4.5 22:18:25 10° N 22:24:41 53° ENE 22:29:12 19° SE
Cosmos 1975 4.3 22:22:23 10° NNW 22:25:50 29° W 22:28:58 12° SSW
Cosmos 2082 Rocket 3.4 22:23:57 18° SE 22:26:25 25° ESE 22:30:57 10° NE
Cosmos 2251 Rocket 4.3 22:24:49 21° SSE 22:27:34 36° ESE 22:32:22 10° NE
Cosmos 1553 Rocket 4.0 22:24:43 10° N 22:30:50 86° W 22:35:15 20° S
Cosmos 1908 3.3 22:34:07 10° N 22:37:39 57° ENE 22:39:14 29° SE
GEOS 3 Rocket 3.6 22:32:33 10° NE 22:37:42 60° SE 22:42:27 12° SSW
Cosmos 724 4.3 22:34:34 12° SSW 22:39:52 60° ESE 22:45:37 10° NE
ARIANE 5 R/B 2.6 22:40:25 25° S 22:42:53 75° WSW 22:47:13 10° NNW
USA 281 3.9 22:41:02 17° S 22:45:48 43° WSW 22:52:03 10° NW
H-2A R/B 4.1 22:45:38 10° NE 22:48:07 15° E 22:49:42 13° ESE
CZ-2C R/B 3.6 22:46:24 10° NNE 22:50:53 86° WNW 22:53:46 22° SSW
Cosmos 1023 Rocket 4.5 22:48:17 16° SSW 22:52:28 88° ESE 22:57:43 10° NNE
Cosmos 2285 Rocket 4.0 22:48:47 19° S 22:53:29 70° ESE 22:59:50 10° NNE
Cosmos 1626 3.9 22:50:58 10° SW 22:53:36 23° WNW 22:56:14 10° NNW
NOSS 3-3 (A) 4.4 22:48:00 10° WSW 22:53:37 64° NW 23:00:16 10° NE
Cosmos 1515 Rocket 3.8 22:54:04 20° SSW 22:56:57 65° WNW 23:01:16 10° N
Meteor 1-22 Rocket 4.3 22:52:29 10° N 22:57:50 68° ENE 23:01:09 24° SSE
Cosmos 1140 Rocket 3.5 22:54:17 17° SSW 22:58:24 88° WNW 23:03:39 10° NNE
Cosmos 1733 Rocket 4.1 22:56:48 10° N 23:00:49 35° ENE 23:03:12 20° SE
Spot 4 3.8 22:58:19 26° SSE 23:00:59 83° ENE 23:05:47 10° NNW
BREEZE-M DEB (TANK) 4.3 22:56:21 10° SW 23:01:07 58° SE 23:20:57 10° ENE
Cosmos 1707 2.5 23:00:27 30° SSW 23:02:08 82° W 23:05:48 10° N
Spot 2 4.5 23:01:25 26° SSE 23:04:11 75° ENE 23:09:13 10° NNW
Cosmos 1400 Rocket 3.8 23:02:59 26° SE 23:04:19 33° E 23:07:53 10° NNE
PSLV R/B 3.9 23:00:28 10° NNE 23:04:32 79° WNW 23:06:48 25° SSW
Cosmos 1300 3.6 23:01:53 10° N 23:05:13 35° ENE 23:06:40 25° ESE
Cosmos 2266 Rocket 4.0 23:02:10 23° S 23:06:14 77° E 23:12:34 10° NNE
Cosmos 1869 Rocket 3.5 23:03:28 10° NNW 23:07:52 83° W 23:10:01 30° S
NOSS 3-4 (A) 4.1 23:02:03 10° NW 23:08:43 56° SW 23:13:38 23° SSE
NOSS 3-4 (C) 4.1 23:02:09 10° NW 23:08:49 57° SW 23:13:46 23° SSE
Cosmos 1697 Rocket 3.6 23:04:40 10° NW 23:09:47 37° WSW 23:12:51 21° SSW
Cosmos 2322 Rocket 3.8 23:05:38 10° NNW 23:10:35 30° NE 23:15:33 10° ESE
Cosmos 1441 Rocket 3.0 23:07:13 10° NNW 23:10:48 78° W 23:12:05 37° S
Meteor 1-15 Rocket 4.2 23:07:58 10° NNW 23:13:38 88° E 23:16:53 26° SSE
OPS 6432 4.2 23:10:51 10° NW 23:13:57 64° SW 23:14:38 47° S
In-Cosmos 22 4.2 23:12:55 25° S 23:16:25 78° E 23:22:07 10° NNE
Lacrosse 5 rocket 1.3 23:13:09 10° WNW 23:17:19 63° SW 23:19:04 31° SE
Cosmos 1980 Rocket 2.4 23:14:38 10° NW 23:20:16 60° WSW 23:23:22 26° S
Cosmos 1674 3.9 23:18:27 17° SW 23:20:34 32° WNW 23:23:45 10° N
Cosmos 2228 Rocket 3.6 23:19:15 28° SSE 23:21:11 46° E 23:25:32 10° NNE
Cosmos 1842 4.2 23:19:04 19° SW 23:21:15 38° WNW 23:24:43 10° N
Cosmos 2333 Rocket 3.9 23:21:09 10° NNW 23:26:07 29° NE 23:31:06 10° ESE
Cosmos 540 Rocket 3.4 23:22:29 10° NNW 23:27:41 84° WSW 23:30:29 28° SSE
Cosmos 1356 Rocket 4.3 23:27:09 26° SE 23:28:37 35° E 23:32:26 10° NNE
USA 234 3.8 23:23:02 10° E 23:29:28 61° NNE 23:35:54 10° WNW
Cosmos 1953 4.1 23:26:42 10° NNE 23:29:54 23° ENE 23:32:08 15° ESE
Cosmos 1763 Rocket 3.7 23:24:52 10° NNW 23:30:07 62° WSW 23:32:48 28° S
Cosmos 1655 Rocket 4.0 23:26:16 25° S 23:30:15 81° E 23:36:41 10° NNE
BREEZE-M DEB (TANK) 3.3 23:30:19 10° W 23:37:30 - SE 23:31:43 29° SW
Cosmos 468 Rocket 4.0 23:27:37 10° NNW 23:32:56 83° WSW 23:35:47 28° SSE
GP-B 3.2 23:31:54 10° N 23:36:20 68° E 23:38:18 32° SSE
SL-14 R/B 3.3 23:36:11 37° SSE 23:37:29 60° E 23:41:16 10° NNE
H-2A R/B 3.6 23:37:53 23° SW 23:39:44 33° W 23:43:39 10° NNW
Cosmos 407 Rocket 3.9 23:36:24 17° SW 23:40:30 62° WNW 23:45:42 10° NNE
Cosmos 1455 3.8 23:38:38 10° NNE 23:41:28 23° ENE 23:43:13 16° ESE
CZ-3 Stage 3 4.5 23:28:06 10° WSW 23:41:54 22° SSW 23:43:39 21° S
Cosmos 1862 Rocket 3.8 23:42:08 32° SSE 23:43:54 55° E 23:48:11 10° NNE
Aureole 3 3.4 23:44:34 35° ESE 23:45:07 39° E 23:48:16 10° NNE
RESURS DK-1 4.3 23:43:10 10° NNW 23:46:39 26° NE 23:50:08 10° ESE
SJ 16-02 3.8 23:46:35 10° E 23:47:16 10° E 23:47:56 10° E
Cosmos 676 Rocket 4.2 23:44:45 29° S 23:47:25 60° ESE 23:52:40 10° NNE
Cosmos 2369 4.1 23:42:28 10° NW 23:47:57 49° WSW 23:50:46 27° S
Cosmos 1954 Rocket 4.0 23:45:26 28° S 23:48:17 73° ESE 23:53:35 10° NNE
ALOS 2 3.2 23:49:40 29° SSW 23:51:31 46° W 23:55:46 10° NNW
Cosmos 1190 Rocket 4.1 23:51:06 24° SSW 23:54:24 80° WNW 23:59:45 10° NNE
Cosmos 1758 3.5 23:52:08 10° NNW 23:55:55 55° W 23:57:14 35° SSW
